When you browse on this site, cookies collect data to enhance your experience and personalize the content and advertising you see.
Visit our Privacy Policy to learn more. By continuing to use the site, you agree to this use of cookies and data.

Hourly Weather Rogozino

Today, 16 July, Thursday

Time Temperature Precipitation Wind Pressure Humidity
00:00 +11°C° 0.1 mm 4 mps 746 mmHg 92%
01:00 +11°C° 0.1 mm 4 mps 746 mmHg 93%
02:00 +12°C° 0 mm 3 mps 746 mmHg 93%
03:00 +11°C° 0.1 mm 3 mps 746 mmHg 93%
04:00 +11°C° 0.1 mm 3 mps 746 mmHg 93%
05:00 +11°C° 0.1 mm 3 mps 746 mmHg 93%
06:00 +12°C° 0 mm 4 mps 746 mmHg 88%
07:00 +13°C° 0 mm 4 mps 746 mmHg 84%
08:00 +14°C° 0 mm 4 mps 746 mmHg 81%
09:00 +14°C° 0.1 mm 4 mps 746 mmHg 82%
10:00 +14°C° 0.1 mm 4 mps 746 mmHg 83%
11:00 +14°C° 0.1 mm 3 mps 746 mmHg 84%
12:00 +16°C° 0 mm 3 mps 746 mmHg 80%
13:00 +16°C° 0 mm 3 mps 746 mmHg 76%
14:00 +17°C° 0 mm 3 mps 747 mmHg 72%
15:00 +18°C° 0 mm 3 mps 747 mmHg 71%
16:00 +18°C° 0 mm 2 mps 747 mmHg 70%
17:00 +18°C° 0 mm 2 mps 747 mmHg 70%
18:00 +18°C° 0 mm 1 mps 747 mmHg 76%
19:00 +16°C° 0 mm 1 mps 747 mmHg 82%
20:00 +15°C° 0 mm 1 mps 747 mmHg 88%
21:00 +13°C° 0 mm 0 mps 747 mmHg 90%
22:00 +12°C° 0 mm 0 mps 748 mmHg 92%
23:00 +11°C° 0 mm 0 mps 748 mmHg 94%

Tomorrow, 17 July, Friday

Time Temperature Precipitation Wind Pressure Humidity
00:00 +12°C° 0 mm 1 mps 748 mmHg 95%
01:00 +12°C° 0 mm 1 mps 748 mmHg 95%
02:00 +12°C° 0 mm 1 mps 749 mmHg 96%
03:00 +12°C° 0 mm 1 mps 749 mmHg 94%
04:00 +12°C° 0 mm 1 mps 749 mmHg 93%
05:00 +12°C° 0 mm 1 mps 749 mmHg 92%
06:00 +13°C° 0 mm 2 mps 749 mmHg 88%
07:00 +14°C° 0 mm 2 mps 749 mmHg 84%
08:00 +15°C° 0 mm 2 mps 749 mmHg 80%
09:00 +16°C° 0 mm 2 mps 750 mmHg 74%
10:00 +18°C° 0 mm 3 mps 750 mmHg 68%
11:00 +19°C° 0 mm 3 mps 750 mmHg 63%
12:00 +19°C° 0 mm 3 mps 750 mmHg 61%
13:00 +20°C° 0 mm 3 mps 750 mmHg 59%
14:00 +21°C° 0 mm 2 mps 750 mmHg 58%
15:00 +21°C° 0 mm 2 mps 750 mmHg 57%
16:00 +21°C° 0 mm 2 mps 750 mmHg 57%
17:00 +23°C° 0 mm 2 mps 750 mmHg 57%
18:00 +21°C° 0 mm 1 mps 751 mmHg 65%
19:00 +19°C° 0 mm 1 mps 751 mmHg 72%
20:00 +15°C° 0 mm 0 mps 751 mmHg 80%
21:00 +14°C° 0 mm 0 mps 751 mmHg 83%
22:00 +14°C° 0 mm 1 mps 752 mmHg 86%
23:00 +13°C° 0 mm 1 mps 752 mmHg 89%

Day after tomorrow, 18 July, Saturday

Time Temperature Precipitation Wind Pressure Humidity
00:00 +13°C° 0 mm 1 mps 752 mmHg 90%
01:00 +12°C° 0 mm 1 mps 752 mmHg 91%
02:00 +11°C° 0 mm 1 mps 753 mmHg 93%
03:00 +12°C° 0 mm 1 mps 753 mmHg 91%
04:00 +12°C° 0 mm 1 mps 753 mmHg 90%
05:00 +11°C° 0 mm 0 mps 753 mmHg 89%
06:00 +15°C° 0 mm 1 mps 753 mmHg 80%
07:00 +18°C° 0 mm 1 mps 753 mmHg 71%
08:00 +20°C° 0 mm 1 mps 753 mmHg 62%
09:00 +21°C° 0 mm 1 mps 753 mmHg 56%
10:00 +21°C° 0 mm 2 mps 753 mmHg 49%
11:00 +24°C° 0 mm 2 mps 753 mmHg 43%
12:00 +24°C° 0 mm 2 mps 753 mmHg 41%
13:00 +25°C° 0 mm 2 mps 753 mmHg 40%
14:00 +26°C° 0 mm 2 mps 753 mmHg 38%
15:00 +25°C° 0 mm 2 mps 752 mmHg 42%
16:00 +25°C° 0 mm 2 mps 752 mmHg 45%
17:00 +25°C° 0 mm 1 mps 752 mmHg 49%
18:00 +23°C° 0 mm 1 mps 752 mmHg 57%
19:00 +21°C° 0 mm 1 mps 752 mmHg 65%
20:00 +17°C° 0 mm 0 mps 753 mmHg 72%
21:00 +16°C° 0 mm 0 mps 753 mmHg 73%
22:00 +15°C° 0 mm 0 mps 753 mmHg 74%
23:00 +14°C° 0 mm 0 mps 753 mmHg 75%

19 July, Sunday

Time Temperature Precipitation Wind Pressure Humidity
00:00 +14°C° 0 mm 0 mps 753 mmHg 77%
01:00 +14°C° 0 mm 1 mps 753 mmHg 80%
02:00 +14°C° 0 mm 1 mps 753 mmHg 83%
03:00 +14°C° 0 mm 1 mps 753 mmHg 84%
04:00 +15°C° 0 mm 1 mps 753 mmHg 86%
05:00 +14°C° 0 mm 0 mps 753 mmHg 87%
06:00 +16°C° 0 mm 0 mps 753 mmHg 78%
07:00 +18°C° 0 mm 0 mps 753 mmHg 70%
08:00 +20°C° 0 mm 0 mps 753 mmHg 61%
09:00 +23°C° 0 mm 1 mps 753 mmHg 56%
10:00 +25°C° 0 mm 1 mps 753 mmHg 52%
11:00 +26°C° 0 mm 1 mps 753 mmHg 47%
12:00 +26°C° 0.1 mm 1 mps 752 mmHg 49%
13:00 +26°C° 0.1 mm 1 mps 752 mmHg 51%
14:00 +25°C° 0.1 mm 2 mps 752 mmHg 53%
15:00 +24°C° 0.4 mm 2 mps 752 mmHg 62%
16:00 +23°C° 0.4 mm 1 mps 751 mmHg 70%
17:00 +22°C° 0.4 mm 1 mps 751 mmHg 79%
18:00 +20°C° 0.9 mm 2 mps 751 mmHg 84%
19:00 +18°C° 0.9 mm 2 mps 751 mmHg 89%
20:00 +16°C° 0.9 mm 3 mps 751 mmHg 94%
21:00 +16°C° 0.1 mm 2 mps 751 mmHg 94%
22:00 +16°C° 0.1 mm 1 mps 751 mmHg 94%
23:00 +15°C° 0.1 mm 1 mps 751 mmHg 93%

20 July, Monday

Time Temperature Precipitation Wind Pressure Humidity
00:00 +15°C° 0 mm 1 mps 751 mmHg 94%
01:00 +15°C° 0 mm 1 mps 751 mmHg 95%
02:00 +14°C° 0 mm 1 mps 751 mmHg 96%
03:00 +14°C° 0 mm 1 mps 751 mmHg 96%
04:00 +14°C° 0 mm 1 mps 751 mmHg 97%
05:00 +14°C° 0 mm 1 mps 751 mmHg 97%
06:00 +16°C° 0 mm 1 mps 750 mmHg 92%
07:00 +18°C° 0 mm 1 mps 750 mmHg 88%
08:00 +20°C° 0 mm 1 mps 750 mmHg 83%
09:00 +22°C° 0.1 mm 1 mps 750 mmHg 74%
10:00 +24°C° 0.1 mm 1 mps 750 mmHg 64%
11:00 +26°C° 0.1 mm 2 mps 750 mmHg 54%
12:00 +26°C° 0.2 mm 2 mps 749 mmHg 52%
13:00 +26°C° 0.2 mm 2 mps 749 mmHg 51%
14:00 +27°C° 0.2 mm 2 mps 749 mmHg 49%
15:00 +26°C° 0.1 mm 2 mps 749 mmHg 52%
16:00 +26°C° 0.1 mm 2 mps 749 mmHg 54%
17:00 +26°C° 0.1 mm 1 mps 749 mmHg 57%
18:00 +24°C° 0.2 mm 1 mps 748 mmHg 66%
19:00 +22°C° 0.2 mm 1 mps 748 mmHg 75%
20:00 +20°C° 0.2 mm 1 mps 748 mmHg 85%
21:00 +19°C° 0.1 mm 1 mps 748 mmHg 87%
22:00 +18°C° 0.1 mm 1 mps 748 mmHg 89%
23:00 +15°C° 0.1 mm 0 mps 748 mmHg 91%

21 July, Tuesday

Time Temperature Precipitation Wind Pressure Humidity
00:00 +14°C° 0 mm 0 mps 748 mmHg 91%
01:00 +14°C° 0 mm 0 mps 748 mmHg 92%
02:00 +14°C° 0 mm 0 mps 747 mmHg 92%
03:00 +15°C° 0 mm 1 mps 747 mmHg 93%
04:00 +15°C° 0 mm 1 mps 747 mmHg 93%
05:00 +15°C° 0 mm 1 mps 747 mmHg 93%
06:00 +18°C° 0 mm 1 mps 747 mmHg 86%
07:00 +20°C° 0 mm 1 mps 746 mmHg 80%
08:00 +22°C° 0 mm 1 mps 746 mmHg 73%
09:00 +24°C° 0.1 mm 1 mps 746 mmHg 66%
10:00 +25°C° 0.1 mm 1 mps 745 mmHg 59%
11:00 +27°C° 0.1 mm 2 mps 745 mmHg 52%
12:00 +27°C° 0.1 mm 2 mps 744 mmHg 51%
13:00 +27°C° 0.1 mm 2 mps 744 mmHg 50%
14:00 +27°C° 0.1 mm 2 mps 744 mmHg 49%
15:00 +26°C° 0.2 mm 2 mps 743 mmHg 58%
16:00 +25°C° 0.2 mm 3 mps 743 mmHg 67%
17:00 +22°C° 0.2 mm 3 mps 743 mmHg 76%
18:00 +21°C° 0.2 mm 2 mps 743 mmHg 82%
19:00 +20°C° 0.2 mm 1 mps 742 mmHg 88%
20:00 +17°C° 0.2 mm 0 mps 742 mmHg 94%
21:00 +19°C° 1.3 mm 1 mps 742 mmHg 96%
22:00 +17°C° 1.3 mm 2 mps 742 mmHg 97%
23:00 +17°C° 1.3 mm 3 mps 742 mmHg 98%
Show more